Location: Derby
(52.9213°N, 1.4761°W)
Time: 19:27:47
(UTC+01:00)

Tiros 1 - Pass Details

Date: 27 May 2025
Orbit: 620 x 651 km, 48.4° (Epoch: 13 June)

Event Time Altitude Azimuth Distance (km) Brightness Sun altitude
Rises 19:27:13 0° 270° (W) 2,897 12.0 13.5°
Reaches altitude 10° 19:29:36 10° 263° (W) 1,993 11.1 13.1°
Maximum altitude 19:33:54 41° 194° (SSW) 905 8.0 12.5°
Drops below altitude 10° 19:38:14 10° 124° (ESE) 2,004 9.1 11.9°
Sets 19:40:39 0° 117° (ESE) 2,916 9.9 11.5°
